Find Starlink 32840

NORAD ID: 63363 Int'l Des: 2025-063 Owner: SPXS Country: US Constellation: starlink operational
LEOCIRCULAR

リアルタイム位置

3D地球を読み込み中...

Starlink 32840について

説明を読み込み中...

次回通過

Passes for default location (London). Set your location on the main map for personalized predictions.

高度履歴

Loading altitude history...

軌道要素

1 63363U 25063A 26122.79545886 .00017495 00000-0 60158-3 0 9991
2 63363 53.1561 158.2945 0001093 76.2724 283.8398 15.30190848 63064
Epoch: May 2, 2026 • Age: 12 hours

現在のステータス

高度 494.2 km
速度 7.62 km/s
衛星直下点 -52.70°S, 84.61°E
打ち上げ日 Mar 26, 2025
運用期間 1.1 years
タイプ internet

技術仕様

分類 Payload
質量 730.00 kg
乾燥質量 700.00 kg
総質量 730.00 kg
長さ 0.30 m
直径 4.10 m
スパン 29.00 m
形状 Box + pan
製造者 SPXS
バスタイプ Starlink V2M
フェーズステータス In Orbit
所有者/国 SPXS/US

Most Searched